Theta_e
323 323 322 321 321 321 322 322 324 325 325 325 325 324 324 324 324 324 324 324 324 323 324 324 324 325 322 322 322 322 321 322 321 317 314 317 320 318 315 314 311 309 310 314 315 314 313 314 314 315 317 318 319 320 320 320 321 320 321 320 318 319 319 319 319 317 316 318 318 317 318 318 317 316 315 314 314 316 316 316 318 318 321 325 326 333 338 336
323 322 321 321 321 322 322 322 324 325 325 325 325 325 324 324 323 323 323 323 323 323 324 323 324 324 323 322 321 321 322 320 316 314 317 318 318 316 314 313 310 309 312 315 315 314 314 314 314 315 316 317 319 320 320 320 320 320 321 319 319 321 319 319 319 317 317 318 318 318 318 318 318 317 315 315 315 315 315 315 316 316 320 325 326 332 336 336
322 322 321 321 322 322 322 323 324 325 325 324 325 324 324 324 323 323 323 322 323 322 323 322 323 323 323 323 322 323 320 316 314 314 318 317 317 316 314 313 309 309 313 315 316 315 315 315 315 314 315 317 317 318 319 320 320 321 321 320 321 321 318 317 317 316 316 317 318 318 318 318 317 316 315 315 317 315 315 315 315 315 319 323 326 332 335 335
322 321 321 321 321 321 322 324 324 324 324 324 324 323 324 324 323 323 322 322 321 321 321 320 321 320 318 316 318 320 316 315 315 315 318 318 317 316 315 313 309 309 312 314 315 314 315 315 315 314 315 316 316 317 319 319 320 319 319 320 320 320 318 316 316 314 314 315 317 317 317 317 316 316 315 315 316 315 315 315 316 315 316 322 326 331 334 335
322 321 320 320 321 321 322 324 324 324 324 324 323 323 323 323 323 322 322 321 319 320 319 318 318 315 311 310 313 315 314 319 317 314 318 319 319 318 315 313 309 309 312 313 314 313 314 315 314 314 315 316 316 317 317 317 319 318 318 319 318 318 318 315 314 313 313 314 316 317 316 316 315 315 315 316 316 315 315 315 316 316 315 321 325 331 335 335
322 320 320 320 320 321 322 324 324 323 323 323 323 322 322 322 323 322 322 320 319 319 318 318 316 311 309 311 313 313 316 322 315 311 316 317 320 317 312 311 309 309 312 312 312 313 314 314 313 314 315 316 316 317 317 316 317 318 317 317 316 317 317 314 313 311 311 314 316 316 316 315 315 315 315 315 316 315 314 314 314 313 318 324 327 331 334 335
322 320 320 320 320 320 322 323 323 323 323 322 322 322 321 322 322 322 321 320 319 318 318 318 314 311 313 313 314 315 317 318 312 311 313 315 317 313 309 309 308 310 312 312 312 313 313 313 313 314 314 315 316 316 317 316 316 318 318 316 315 315 315 313 312 311 311 314 315 315 315 315 316 315 314 314 316 315 313 314 313 313 319 326 327 330 333 335
321 320 321 320 320 320 321 323 323 323 322 322 322 321 321 321 321 321 320 320 319 318 319 318 313 314 315 312 314 315 314 315 313 313 312 313 313 310 310 310 311 312 313 312 312 312 313 313 313 313 314 315 316 316 316 316 316 317 318 316 314 314 314 312 311 311 311 313 313 314 315 315 315 314 313 314 315 315 313 314 316 317 319 323 324 327 330 333
321 320 320 320 321 320 321 322 322 322 322 321 321 321 321 320 320 320 320 319 319 319 318 315 310 312 313 313 313 311 312 313 312 312 312 314 312 311 312 313 314 313 313 313 312 312 312 312 313 314 314 314 316 316 316 316 315 316 317 316 315 314 313 312 312 312 312 313 312 314 315 314 312 312 314 316 315 314 313 313 316 319 319 320 322 324 328 331
321 320 320 320 321 320 320 320 321 321 321 321 320 320 320 320 320 319 319 319 318 319 315 311 308 310 313 315 312 310 313 312 310 311 313 314 314 314 314 314 315 314 313 314 312 312 312 312 313 314 313 314 315 315 316 316 316 316 316 316 315 314 313 312 314 312 313 313 312 315 316 314 312 312 315 315 313 312 312 314 317 318 318 319 321 324 328 330
321 320 320 320 320 320 319 319 319 320 320 320 320 320 319 319 319 318 319 318 318 318 313 311 310 311 315 316 311 311 315 313 310 311 312 314 315 316 315 313 314 313 313 313 312 312 312 313 314 313 312 313 314 315 315 314 315 316 315 315 314 314 314 313 314 313 314 314 312 315 315 314 313 313 315 314 312 312 313 314 316 317 317 319 320 323 327 329
320 320 319 319 319 319 318 318 319 319 320 320 319 320 319 319 318 317 318 317 318 316 312 313 312 312 315 313 311 312 313 314 312 311 313 314 314 315 315 313 313 312 313 313 312 312 312 313 313 312 312 313 314 314 314 313 315 316 315 315 314 314 315 314 314 313 314 314 312 313 313 314 314 314 315 313 311 313 313 315 316 317 316 319 322 324 326 328
320 319 318 318 319 319 318 318 319 319 320 320 319 319 318 318 317 316 317 317 317 315 314 315 313 313 314 309 311 312 312 315 313 313 314 313 312 313 314 313 312 312 313 314 314 313 312 312 312 312 311 313 314 312 313 313 315 315 315 315 315 314 315 314 314 313 314 313 312 313 311 313 316 316 314 312 311 313 313 314 316 317 317 318 322 323 325 328
319 319 318 318 319 319 319 319 319 319 319 319 318 318 317 317 316 316 316 316 317 315 315 315 312 313 313 308 311 311 312 315 312 313 313 312 312 311 312 312 311 312 312 312 313 313 311 311 313 312 311 312 312 311 312 313 314 315 314 315 315 312 313 315 314 313 314 312 312 313 310 313 317 315 313 312 312 313 313 314 315 316 317 318 320 321 322 326
318 318 319 319 319 319 319 319 319 319 318 318 317 317 316 316 316 315 315 316 316 316 315 313 313 314 310 307 311 311 313 314 313 313 311 312 313 312 312 312 312 312 311 311 311 310 310 312 312 312 311 310 311 312 313 313 313 315 312 312 314 312 313 315 314 313 315 313 313 313 311 313 315 313 311 311 311 312 313 314 314 315 315 316 317 319 320 322
319 319 319 319 319 319 319 319 318 318 317 316 316 315 315 315 315 315 315 316 316 315 315 314 315 315 309 308 313 313 314 315 315 313 311 313 314 314 313 312 312 312 311 311 310 310 311 312 312 313 312 311 312 313 313 312 313 315 312 310 313 313 313 315 314 313 314 314 313 313 312 314 315 313 311 311 312 312 313 313 314 314 314 315 315 316 317 318
319 319 319 319 319 318 318 318 318 317 316 315 315 315 315 314 314 315 315 316 316 314 314 314 314 313 309 310 313 313 314 315 315 313 311 313 315 314 313 313 313 312 311 311 311 312 312 312 312 312 313 312 313 313 313 312 311 313 313 311 313 313 311 313 313 314 314 314 315 314 313 313 315 315 312 312 313 313 313 313 314 314 314 314 315 315 315 316
318 318 318 318 318 317 317 317 317 316 315 314 314 314 314 314 314 315 315 315 315 313 313 313 312 310 309 310 312 314 315 314 314 313 312 312 314 314 314 314 313 312 311 311 312 312 311 313 312 312 313 312 313 313 312 311 312 312 311 312 314 314 311 312 313 313 313 314 315 314 313 313 314 315 314 313 313 313 314 314 314 314 314 315 315 315 315 315
318 318 318 317 317 316 316 316 315 314 314 314 314 313 314 314 315 315 316 316 313 311 311 311 311 309 308 309 312 315 315 313 313 313 313 312 313 314 314 314 313 312 311 310 312 311 312 313 312 312 312 312 313 313 312 313 314 314 313 313 314 313 311 313 314 312 313 314 314 314 313 314 315 314 315 314 313 313 314 314 314 315 314 315 315 315 316 316
318 317 317 317 316 316 316 315 314 314 314 314 313 314 314 315 314 314 315 316 312 309 310 309 310 309 309 311 313 313 313 313 313 314 313 312 312 313 313 314 313 312 311 310 312 313 313 313 312 313 313 313 313 313 313 313 314 315 314 313 313 312 311 313 314 311 312 314 314 314 314 315 315 315 315 315 315 314 314 314 314 315 315 315 315 315 317 316
317 316 316 316 316 316 315 314 313 314 314 313 314 315 314 313 312 312 313 313 310 309 310 309 310 311 311 313 313 313 313 313 313 314 313 312 313 313 313 313 313 312 312 312 313 313 313 313 313 313 314 313 312 313 313 312 314 315 314 313 312 312 311 313 313 311 312 312 313 315 314 315 315 315 315 315 315 315 315 314 314 315 315 315 316 317 318 318
316 316 316 315 315 315 314 313 314 314 313 313 315 315 312 311 311 311 311 309 309 311 311 310 311 312 312 313 312 312 313 313 313 314 313 312 313 313 312 313 312 312 314 313 313 313 312 313 313 313 313 313 313 313 312 312 314 313 314 313 311 313 312 312 312 312 311 311 313 315 314 314 315 315 315 315 315 315 316 315 314 315 315 316 316 318 318 319
316 316 315 315 315 314 313 314 314 313 313 314 316 315 311 311 311 310 310 309 309 310 310 309 310 312 311 312 312 312 313 312 313 314 313 312 313 313 313 312 311 313 314 314 313 312 312 312 312 313 313 313 312 312 312 313 313 313 314 311 311 314 312 310 312 312 312 311 312 314 314 314 314 314 315 315 315 316 316 316 316 317 317 317 318 319 319 318
315 315 315 314 314 314 313 314 313 313 314 314 316 315 311 310 310 310 310 309 309 309 309 310 311 313 312 312 313 312 312 313 313 314 312 312 312 312 313 312 312 313 312 313 312 312 312 310 310 312 312 312 312 312 313 312 311 315 317 313 313 315 312 312 313 312 312 311 311 313 311 311 313 314 314 315 315 315 315 314 315 315 315 316 316 317 317 316
315 315 314 314 314 314 313 313 313 313 314 315 316 315 311 309 310 312 312 310 310 310 309 310 313 314 312 312 312 312 312 312 313 314 313 313 312 311 312 311 312 313 312 312 311 312 313 308 308 312 312 313 313 312 313 313 311 313 317 316 314 314 313 314 314 313 312 312 313 314 309 308 313 315 314 315 313 313 314 313 313 314 314 314 313 313 314 314
315 314 314 314 314 313 313 313 313 313 314 314 316 314 310 309 309 312 313 311 312 311 309 310 312 313 312 312 313 311 311 312 312 313 313 312 312 311 311 310 311 312 312 312 312 313 311 306 309 314 313 315 315 312 314 315 310 310 316 317 314 314 315 315 316 314 311 311 313 313 310 308 311 314 315 315 313 313 314 313 313 313 313 314 314 315 316 316
314 314 314 314 313 313 312 313 313 313 314 314 314 312 309 309 308 311 313 312 312 311 309 308 309 311 312 312 312 311 311 313 312 313 312 311 311 310 311 311 310 310 311 312 312 312 309 308 311 315 314 315 314 312 315 315 311 313 317 317 314 315 317 316 316 314 312 313 312 313 314 311 309 313 315 314 313 313 314 313 314 314 314 315 315 316 316 316
313 313 313 313 313 312 312 313 313 313 313 313 312 311 309 309 308 309 311 313 313 311 309 308 307 310 312 310 310 311 312 313 314 313 311 310 310 310 311 311 311 310 310 311 312 312 311 311 313 315 315 315 314 315 317 314 312 315 316 317 316 317 318 317 316 314 313 313 311 313 315 310 309 312 314 313 312 312 313 314 315 315 315 315 315 315 315 315
313 313 313 313 312 312 312 313 313 313 313 311 310 310 309 308 310 309 311 313 312 309 309 309 308 311 312 309 310 312 312 313 314 313 310 309 310 310 310 311 311 310 309 312 314 313 311 311 312 314 316 315 313 312 316 317 315 314 314 316 317 318 318 317 316 314 313 312 311 314 315 310 309 311 312 313 311 312 313 314 315 316 315 315 314 315 315 315
313 312 312 312 311 311 312 312 313 313 311 309 309 309 309 309 310 310 311 313 312 309 308 309 310 311 311 309 310 312 312 313 312 311 311 310 310 309 309 311 311 311 312 315 315 313 310 308 311 314 313 312 310 309 312 317 315 314 315 316 316 315 315 315 314 313 312 312 313 314 315 312 309 309 312 313 311 312 314 314 315 315 314 314 314 314 314 314
312 312 311 311 311 311 312 312 312 313 310 308 309 310 310 310 309 310 312 313 312 310 308 309 311 311 311 311 311 312 313 313 312 312 311 310 310 309 310 311 312 313 313 314 315 314 311 310 312 312 309 309 312 311 311 313 313 316 317 315 314 314 313 312 312 312 312 313 311 310 312 313 309 309 311 312 311 312 314 314 314 314 313 314 314 314 314 314
312 311 310 311 311 311 312 312 312 311 309 309 311 312 310 309 310 311 311 311 312 311 310 311 312 311 311 312 313 313 314 314 313 312 312 311 311 310 311 312 312 312 312 312 314 315 315 313 313 312 309 310 314 313 311 312 314 316 315 312 312 313 313 313 313 313 313 312 309 308 311 313 310 310 311 312 311 311 313 314 314 313 313 314 314 314 314 314
311 310 310 311 311 311 313 313 310 310 309 311 313 312 309 310 310 311 310 311 312 311 311 312 312 312 312 312 314 314 315 314 313 312 312 313 312 312 313 313 313 314 313 313 315 315 315 314 313 314 311 310 314 313 312 312 312 314 314 312 311 312 314 315 314 313 312 311 308 308 311 312 310 311 313 313 312 311 312 313 313 312 312 312 313 314 314 315
310 310 311 311 311 311 312 311 309 309 310 313 312 310 311 311 311 311 311 312 312 311 311 312 312 312 312 313 314 314 314 314 313 313 314 313 313 313 313 313 314 315 314 314 315 315 315 314 313 314 313 312 314 314 314 314 313 315 317 314 312 312 313 314 313 313 313 311 309 308 311 311 309 310 312 312 312 311 310 310 310 310 311 311 312 313 314 315
310 311 311 311 311 312 311 309 309 310 311 313 310 309 312 312 311 311 312 312 311 311 312 312 313 313 312 313 315 313 313 314 314 314 314 314 313 314 313 312 313 315 314 314 314 314 314 314 313 313 313 313 314 315 315 315 314 315 317 316 313 313 312 311 311 312 312 312 310 309 311 311 311 312 312 311 310 310 309 309 309 310 311 311 313 314 315 315
310 311 312 311 312 312 310 308 309 311 312 311 309 310 312 312 312 312 312 311 311 312 313 313 314 314 313 314 315 313 313 315 315 314 314 314 313 314 314 312 313 313 313 314 314 313 314 314 313 312 312 311 312 314 314 314 316 314 313 314 313 314 313 310 309 309 309 311 311 311 311 310 311 312 312 312 310 310 309 308 309 310 312 313 315 316 316 315
312 312 312 312 312 313 310 308 309 312 313 310 309 311 313 313 313 312 311 311 311 312 313 314 314 314 313 314 314 314 314 315 315 315 315 314 314 314 314 313 313 313 313 313 314 314 314 314 313 313 314 311 310 313 314 313 315 313 313 314 312 312 312 309 310 310 309 310 310 311 311 309 309 311 312 312 311 310 310 309 309 312 313 316 317 317 316 315
312 312 313 312 313 313 309 308 311 312 312 311 310 313 315 314 312 312 311 311 312 313 312 314 314 313 314 313 313 313 314 314 315 315 315 314 313 314 313 313 314 312 312 313 313 315 315 314 313 313 314 312 311 314 313 312 313 312 313 314 312 312 312 309 311 312 311 311 310 310 310 309 309 310 311 311 312 312 311 310 311 312 314 317 317 316 315 314
313 313 313 312 313 312 310 310 312 311 311 311 311 313 315 314 313 314 313 311 312 313 313 314 314 314 314 313 313 314 312 313 314 315 315 314 313 314 314 314 315 313 311 311 312 315 316 315 315 312 312 313 312 312 313 313 312 310 311 313 312 312 312 310 311 310 310 311 310 310 310 309 311 311 311 312 312 312 312 311 311 312 315 317 316 315 314 313
314 315 314 312 313 312 311 312 312 311 310 311 311 313 314 314 312 312 314 315 314 313 313 314 314 314 315 314 313 314 312 313 315 314 315 314 312 313 313 313 314 313 311 311 312 315 313 312 315 313 312 313 312 313 314 315 313 310 311 311 311 312 311 311 312 310 310 311 310 311 311 309 311 313 312 312 312 313 313 312 312 313 316 317 315 314 314 314
314 316 314 312 313 313 312 313 312 312 311 310 311 313 314 314 312 311 312 315 315 313 313 315 315 314 315 315 314 314 314 314 316 314 314 314 312 312 313 312 314 314 312 311 312 315 313 311 314 314 313 314 314 313 313 315 315 313 312 312 312 312 312 312 314 312 310 310 309 311 310 309 311 313 312 311 311 312 313 313 313 314 316 316 314 314 314 314
315 317 314 312 313 313 313 313 312 312 312 311 312 314 314 313 311 311 312 314 315 313 312 315 316 315 315 316 315 316 314 314 316 315 314 315 313 313 314 313 312 312 312 312 313 316 316 315 316 315 314 314 314 312 310 311 314 314 313 313 313 313 312 313 314 313 311 309 308 309 310 311 312 310 309 310 309 308 310 312 314 315 316 316 315 314 314 313
313 314 313 312 313 314 313 313 313 314 313 312 312 314 315 313 312 312 312 313 314 314 313 315 316 316 316 316 315 316 314 315 316 315 315 316 314 313 314 313 312 311 312 313 313 315 316 318 317 315 314 313 312 312 311 311 314 313 313 313 313 314 315 313 312 312 312 310 308 310 311 312 313 310 308 308 308 308 307 309 313 315 315 315 315 314 314 313
310 310 311 312 313 314 314 314 314 315 314 312 313 314 314 314 313 312 312 313 314 313 313 315 315 315 316 315 315 316 315 315 316 315 316 316 314 313 313 312 312 311 312 313 313 312 313 316 317 315 315 315 314 314 313 313 313 312 313 314 313 315 316 312 311 311 312 313 313 311 311 312 312 310 309 308 308 308 307 306 310 315 316 315 314 314 313 312
310 310 310 310 311 313 315 313 313 315 314 312 314 314 314 314 313 313 313 314 315 314 313 314 315 314 314 314 315 316 315 315 316 316 316 316 314 312 313 313 311 311 315 318 314 313 314 315 315 316 316 316 316 316 315 315 314 313 314 315 314 315 314 313 312 312 313 316 316 312 311 311 311 309 309 309 308 308 308 306 307 313 316 315 314 313 312 311
311 310 309 310 310 312 313 312 312 314 313 312 313 314 313 314 312 313 315 314 314 315 314 314 314 314 313 314 315 316 316 316 318 316 315 315 314 312 312 313 312 315 320 321 316 316 318 317 314 314 315 315 315 316 317 317 316 315 316 316 316 315 315 314 314 314 313 315 316 314 312 312 311 309 309 311 310 309 309 307 307 311 315 314 313 313 312 311
309 310 309 311 312 312 313 312 312 314 313 311 312 313 314 314 312 312 314 314 313 315 315 314 314 314 313 314 315 315 315 317 316 315 315 316 314 312 310 311 313 316 318 318 315 315 316 314 314 315 315 314 314 316 319 320 318 317 317 317 317 316 316 316 315 315 314 315 314 315 314 314 313 311 310 311 311 310 310 308 307 310 314 314 313 312 311 310
305 307 306 307 310 312 314 313 312 313 313 311 311 313 314 314 313 312 313 314 315 315 315 314 314 314 313 314 315 315 315 317 316 315 317 316 314 312 310 309 311 313 315 316 316 315 313 312 315 316 316 316 316 317 319 319 318 317 318 318 318 317 316 316 316 315 316 316 314 314 316 316 314 312 311 311 312 311 310 309 308 310 313 313 312 311 310 310
301 303 303 304 307 310 312 312 312 313 312 311 312 313 313 314 313 313 314 315 315 315 315 315 315 314 314 314 314 315 316 317 316 316 317 316 315 313 312 310 310 310 312 314 315 315 313 313 314 315 316 316 317 318 318 317 318 318 318 318 318 317 316 315 315 315 315 316 315 314 316 317 315 313 312 313 314 313 311 310 310 312 313 313 312 311 310 310
301 302 303 305 306 308 311 312 311 312 312 311 312 313 313 313 314 314 315 316 315 315 316 316 315 314 315 314 314 315 316 316 316 316 315 314 314 313 312 312 311 311 312 312 313 314 313 314 315 315 314 315 317 319 319 319 319 319 320 321 319 317 316 315 315 315 314 315 315 315 316 317 316 314 314 316 316 313 311 310 310 312 313 312 311 310 310 310
299 299 300 304 306 307 310 313 312 312 313 312 311 312 313 313 313 315 316 315 315 316 316 317 316 316 316 315 314 314 315 316 317 317 315 314 313 313 314 314 313 313 312 312 313 313 312 314 316 315 313 314 317 319 318 317 316 316 319 322 321 318 317 316 315 315 315 315 315 317 317 316 315 314 315 317 315 311 310 310 310 311 312 311 310 310 310 310
298 298 298 302 305 305 308 313 314 313 313 312 311 312 312 312 313 314 314 314 316 316 316 316 317 316 315 315 315 316 317 317 316 316 316 315 313 313 315 315 313 313 312 312 313 312 311 313 315 314 314 316 317 316 315 313 313 313 316 318 319 318 317 316 315 315 315 315 315 316 316 315 315 314 314 315 314 312 311 311 311 312 313 312 311 311 311 310
Wind_Speed
39 38 37 36 36 36 37 38 38 37 34 33 33 33 32 31 30 30 30 29 27 25 26 26 25 23 19 18 18 19 16 11 11 7 7 16 20 18 14 14 16 15 15 14 12 11 11 11 8 7 7 5 2 3 4 2 2 3 4 4 5 5 3 4 5 2 2 7 9 9 11 8 7 7 3 3 4 2 4 5 4 4 4 8 8 7 12 17
39 38 37 37 37 37 37 38 38 36 34 32 31 31 31 30 30 31 30 29 28 25 25 25 26 25 21 20 19 19 16 8 6 8 18 25 21 19 16 18 21 16 13 14 14 14 12 10 10 9 7 4 2 3 4 2 2 4 3 5 5 2 3 2 2 4 4 4 10 10 9 6 5 8 7 5 7 7 6 6 6 6 7 9 10 9 12 15
39 39 38 38 38 37 38 38 37 35 34 32 30 30 30 30 30 30 30 30 29 26 25 25 25 24 22 23 21 20 13 4 2 10 24 27 22 22 16 17 20 17 16 15 14 16 13 9 10 10 7 5 4 4 5 3 3 3 2 5 3 4 5 4 4 5 5 3 8 10 7 5 3 6 7 5 6 7 7 6 7 8 9 10 11 12 14 15
39 39 39 39 39 38 38 37 37 35 33 32 31 30 29 29 29 29 30 30 29 27 26 25 25 24 21 20 20 18 10 4 3 15 29 29 25 26 19 19 20 17 17 16 13 13 11 8 10 10 7 6 5 5 6 4 2 2 2 3 3 4 3 5 5 4 4 4 3 9 7 6 4 4 6 5 5 6 8 7 7 8 9 12 13 14 15 16
41 40 39 39 39 38 37 37 36 35 33 32 31 30 29 28 29 29 29 29 28 27 26 25 24 24 21 18 18 18 13 2 7 18 30 30 29 28 21 21 22 17 18 18 14 11 10 9 10 9 7 6 7 7 8 6 3 4 2 3 5 2 2 5 4 4 3 3 2 8 7 6 6 5 6 7 6 2 1 2 2 1 2 10 16 15 16 16
42 40 40 39 39 38 37 36 36 35 33 32 30 29 29 29 28 28 28 27 27 28 26 24 23 23 22 19 18 17 10 4 3 12 24 27 29 27 21 23 22 18 18 15 11 10 10 10 9 9 7 7 11 10 8 7 4 4 4 3 5 3 3 4 3 3 1 2 4 6 4 5 7 6 5 7 7 4 7 7 7 6 4 9 16 15 15 15
41 40 40 39 39 39 38 36 34 35 33 32 31 29 29 28 28 28 27 27 27 27 25 23 23 24 22 18 15 11 7 6 1 7 18 23 27 25 23 25 22 18 18 13 9 9 9 11 11 9 8 7 11 11 9 8 5 5 5 6 4 4 4 3 4 2 1 1 1 2 3 4 7 5 3 7 8 4 8 6 6 5 4 8 13 14 15 16
42 41 40 39 39 39 38 35 33 33 33 32 31 30 29 28 28 27 27 28 27 26 23 22 24 26 26 22 13 7 10 9 3 4 11 16 21 24 24 22 20 19 17 14 12 10 9 11 12 10 9 8 9 10 9 9 8 8 5 8 5 4 5 4 4 3 1 1 1 1 4 3 2 0 1 7 7 5 7 4 4 4 4 6 10 12 13 15
43 42 41 39 39 40 39 36 33 33 32 32 31 30 29 28 27 26 26 27 26 24 22 22 25 27 27 21 10 7 11 13 6 1 3 9 16 23 23 19 21 21 17 16 13 11 9 9 12 10 6 6 9 10 11 11 8 6 6 8 7 6 6 4 4 4 2 1 1 5 5 3 2 2 5 8 4 6 6 3 3 4 4 6 8 10 12 12
44 42 41 39 38 38 39 36 33 33 32 31 31 31 29 28 26 25 25 25 24 23 24 25 27 30 24 15 11 7 8 14 13 5 2 7 15 21 20 17 21 21 16 15 13 12 9 6 8 5 4 4 7 8 12 10 5 8 8 8 8 7 5 3 3 4 3 3 3 5 4 3 2 1 5 4 4 5 5 5 5 5 6 7 7 8 10 11
44 42 41 39 38 37 37 36 33 32 31 30 31 30 28 27 25 25 24 23 24 23 26 27 30 32 21 11 12 7 4 10 14 11 5 8 16 21 19 17 19 19 15 13 12 13 12 4 1 1 2 3 6 5 6 4 5 11 12 9 7 6 6 4 4 5 2 3 2 3 2 3 3 4 5 4 5 4 5 6 6 6 7 7 8 8 8 10
43 42 41 39 39 38 37 36 34 33 30 29 31 29 27 27 25 23 22 22 22 23 26 27 30 29 15 9 9 4 5 8 11 11 9 11 16 19 18 16 16 16 13 12 12 12 11 4 2 5 3 2 7 5 3 3 5 11 11 7 7 5 5 5 5 5 3 2 2 2 3 5 8 10 7 7 5 4 5 5 6 7 7 7 7 7 7 8
43 42 40 40 40 38 38 37 35 34 31 29 30 28 26 26 24 22 21 21 20 22 24 24 30 24 9 8 6 3 5 7 10 11 13 15 15 16 16 14 17 16 10 8 8 9 11 6 5 7 3 3 4 3 3 5 5 10 9 5 6 5 6 8 6 4 3 3 3 3 4 7 11 13 6 8 5 4 5 6 6 6 6 7 6 6 7 8
43 42 41 40 40 39 38 37 35 35 31 28 28 27 26 24 22 21 20 20 19 21 21 23 29 18 7 5 3 4 7 7 10 11 14 15 12 13 12 11 15 16 10 5 3 6 10 6 4 5 1 3 1 2 4 6 5 8 6 4 6 6 5 8 6 7 6 3 4 5 5 7 5 9 6 5 5 5 7 7 7 6 6 6 6 7 7 8
43 42 42 40 41 40 38 38 36 33 29 28 28 25 25 23 20 20 20 19 18 19 20 22 24 11 5 5 2 6 9 6 9 10 13 15 11 10 9 10 11 12 11 6 3 5 8 7 6 5 3 0 2 5 6 5 5 7 6 5 7 6 5 7 6 7 6 4 6 6 6 8 3 8 5 3 5 6 7 7 7 6 6 7 6 7 7 8
44 43 42 42 42 40 38 38 36 32 29 28 26 23 24 22 20 19 18 18 17 19 19 17 19 10 5 5 3 6 8 5 9 10 14 15 10 10 11 10 9 7 7 5 5 6 8 7 3 2 4 4 5 6 6 5 5 6 7 7 8 8 6 6 5 5 3 4 8 8 6 7 3 7 4 4 6 6 7 7 7 7 7 7 6 7 7 7
45 44 43 43 42 40 40 37 35 33 30 28 26 25 24 21 21 19 17 17 16 20 16 9 14 9 4 4 4 6 8 6 10 11 16 15 10 12 15 10 8 8 8 7 7 8 8 6 2 2 4 6 8 7 6 6 6 6 6 5 6 10 8 5 4 4 5 5 8 10 9 11 4 6 7 6 6 6 6 6 7 7 7 7 6 6 7 7
45 45 44 43 41 42 39 36 35 33 30 30 27 26 24 22 22 19 18 16 14 16 9 3 11 7 4 7 5 5 9 9 11 12 16 14 11 14 12 8 9 11 11 8 6 8 7 5 4 5 6 8 9 9 8 7 7 8 8 5 5 8 11 8 4 5 8 7 8 10 11 15 12 6 7 8 8 6 6 6 5 6 6 6 6 6 7 8
46 45 44 43 42 42 40 38 36 33 33 32 29 29 26 22 18 14 15 16 13 11 5 6 12 5 3 10 6 6 10 12 12 11 12 11 12 12 8 8 12 12 10 7 7 9 6 5 6 7 8 9 10 12 9 5 7 11 10 8 6 7 9 5 5 4 5 7 9 12 12 12 13 12 9 7 9 7 6 6 6 6 6 6 7 7 7 8
46 45 45 43 43 42 41 40 36 36 37 35 36 30 21 17 12 8 11 13 11 5 1 11 15 3 2 9 11 13 12 11 9 6 10 12 12 11 7 8 10 8 8 9 8 7 5 6 8 9 10 12 13 12 5 2 4 9 8 6 6 7 6 4 7 4 1 4 9 12 12 13 13 12 11 8 8 8 8 9 9 8 8 7 8 8 9 9
47 45 44 43 43 42 41 40 38 40 39 39 37 21 12 16 10 11 15 10 6 2 1 12 12 1 3 6 13 17 12 6 4 6 12 13 11 11 7 7 10 8 8 11 9 5 4 8 10 11 10 11 12 8 3 3 4 6 6 5 5 6 3 4 5 4 2 3 6 7 10 14 13 12 12 10 9 10 10 12 12 12 11 9 9 10 9 8
47 45 45 43 43 42 41 41 40 41 38 36 30 12 6 9 6 16 19 9 6 4 3 12 9 4 5 4 6 8 8 7 6 7 10 12 11 9 7 8 11 9 7 9 8 6 7 10 11 9 4 5 6 4 3 2 3 4 5 6 5 4 4 4 4 5 3 3 3 2 6 11 12 12 13 12 12 11 11 12 12 11 11 9 9 9 8 7
47 46 45 44 43 42 42 41 41 40 35 30 24 10 3 9 20 28 17 8 7 4 6 11 6 5 6 4 3 3 7 9 8 9 9 10 8 6 7 10 11 9 8 11 9 8 8 7 6 7 6 6 5 4 5 3 3 4 4 6 5 4 4 2 3 5 3 2 2 3 5 9 10 11 13 13 11 8 7 7 7 6 7 8 6 4 4 7
47 46 45 44 44 42 41 41 39 36 29 25 22 12 5 17 29 26 10 7 7 3 2 4 3 5 6 5 4 6 6 6 6 9 10 9 5 4 8 10 10 8 8 13 13 10 6 1 1 4 7 9 7 7 8 6 5 4 4 5 4 7 5 2 5 6 2 2 2 4 6 8 9 11 12 9 5 4 5 5 6 6 6 6 5 4 5 7
47 46 45 45 43 43 43 39 33 30 23 20 21 15 10 19 23 17 7 6 6 3 1 1 1 4 6 5 4 4 5 5 2 5 7 6 4 5 5 3 5 9 11 14 13 10 3 3 2 4 8 9 9 9 9 8 6 5 5 4 1 6 7 6 7 6 1 4 3 3 5 5 5 10 10 5 3 5 6 6 9 9 7 6 6 6 6 6
48 46 46 45 44 46 40 26 24 27 20 17 20 16 15 18 16 11 5 5 6 4 5 6 3 6 9 5 3 5 8 4 3 4 6 3 1 2 4 2 0 5 10 9 6 4 2 2 1 5 8 7 8 8 9 9 7 5 4 2 3 4 7 8 7 5 2 2 2 2 6 4 2 6 7 5 4 6 6 6 8 7 6 6 5 5 4 4
48 46 48 45 46 48 31 15 23 28 15 13 19 17 17 17 10 5 3 4 6 6 7 4 1 8 9 3 4 6 7 7 5 4 4 2 1 0 3 6 3 1 3 4 3 1 4 5 2 5 8 7 7 7 8 9 8 3 0 2 5 5 7 9 7 5 2 1 2 3 4 4 5 3 4 5 4 7 8 8 8 6 5 5 4 3 3 2
48 48 48 46 48 43 23 18 28 24 10 11 18 17 17 15 6 2 3 5 5 5 7 4 2 7 6 2 2 2 4 10 9 5 2 2 1 0 3 9 8 5 2 2 5 1 3 6 6 8 8 7 5 2 5 11 8 0 2 0 4 4 6 8 6 4 1 0 3 5 3 4 6 3 4 3 6 9 9 9 9 7 5 4 3 2 1 1
48 49 46 46 47 31 17 23 29 22 14 13 19 20 17 11 4 3 4 5 5 4 4 5 6 7 6 5 4 2 5 6 3 4 5 2 1 1 2 6 8 9 4 3 2 1 2 2 2 4 6 5 2 5 2 5 4 3 4 4 6 4 4 4 4 3 2 4 6 5 5 5 5 4 4 4 5 8 8 7 8 6 5 3 2 1 0 1
50 49 46 47 41 22 17 25 26 23 19 17 21 22 15 7 4 7 6 5 6 5 4 5 8 10 12 11 6 6 7 4 3 8 6 4 4 2 1 1 6 8 4 5 5 2 2 1 2 1 1 2 5 6 6 3 4 7 7 7 7 4 4 2 2 2 4 6 3 3 2 4 4 4 4 3 2 4 4 5 6 5 5 3 1 1 1 1
50 47 48 46 33 22 20 20 24 26 20 21 24 19 11 5 6 8 6 5 7 5 5 7 11 14 17 16 9 7 7 5 9 13 9 5 5 4 4 3 4 5 3 2 4 3 3 2 1 1 1 1 4 6 6 3 4 5 5 7 6 4 3 3 3 3 6 5 1 2 1 3 5 4 2 1 2 1 1 3 6 6 5 3 2 1 1 1
48 45 48 41 27 23 15 12 28 30 20 23 22 11 7 7 7 7 5 7 7 7 8 12 15 16 18 17 10 8 8 6 9 13 12 9 6 7 8 6 6 5 4 6 4 3 3 2 2 2 1 3 4 6 5 2 2 3 5 8 6 4 4 5 5 5 6 3 2 1 1 3 7 7 5 4 2 3 1 1 4 5 5 4 3 2 2 1
46 47 47 34 25 20 9 15 35 31 22 24 14 5 7 8 9 9 8 7 6 9 11 12 15 16 18 15 9 9 8 5 8 10 10 10 9 9 6 4 8 5 3 7 5 4 3 1 2 3 1 4 6 6 5 4 5 7 8 8 7 6 5 6 6 5 5 1 1 1 1 3 5 6 8 9 6 5 5 3 4 4 3 3 2 2 2 2
46 48 42 28 24 17 9 22 36 30 26 20 8 6 9 8 8 10 10 6 5 9 13 14 16 17 17 12 10 11 5 2 6 8 9 9 8 9 6 6 8 4 2 7 5 5 6 2 3 4 3 4 6 3 1 5 8 6 3 4 6 6 4 5 5 4 3 2 1 1 2 4 3 1 1 1 1 4 6 4 3 3 3 2 2 2 2 3
46 42 32 23 21 14 13 28 34 29 23 11 6 9 10 8 8 10 9 6 6 10 14 16 16 15 14 9 10 11 2 1 6 6 8 9 8 9 9 8 9 5 5 7 4 5 6 2 1 1 0 2 3 2 3 3 7 3 1 1 4 3 1 1 0 1 2 1 2 4 3 4 3 1 3 4 2 2 3 4 3 3 4 4 3 3 4 4
43 33 24 20 18 13 18 32 34 26 15 7 8 10 9 7 6 8 9 8 9 13 16 16 13 12 12 6 8 10 1 2 8 6 6 8 8 10 10 9 10 9 8 7 3 4 5 1 2 1 1 1 1 2 3 1 3 3 2 3 2 1 2 3 1 2 1 4 3 5 4 4 3 5 5 6 5 4 4 4 5 5 6 6 5 4 5 5
35 25 19 18 16 13 22 34 31 19 8 6 10 10 7 4 1 4 9 10 11 15 15 13 9 11 12 7 9 13 6 5 8 6 5 7 7 10 12 9 11 13 10 5 1 2 4 3 2 0 2 2 1 1 2 2 0 2 3 4 3 1 1 1 2 1 2 6 3 4 6 5 4 4 3 6 6 6 7 7 7 7 7 7 6 6 6 6
27 19 13 16 16 13 23 32 25 12 4 5 12 11 5 2 1 4 10 13 14 15 13 10 8 10 12 9 10 13 11 8 8 6 7 7 6 11 15 9 10 15 11 2 1 1 3 3 2 2 1 2 1 1 2 1 0 1 1 1 1 2 3 3 3 3 4 6 4 5 7 5 5 4 2 5 8 8 8 9 9 9 9 8 8 8 7 7
22 13 7 15 17 15 25 26 15 7 5 6 12 10 4 3 1 2 8 13 13 12 12 10 8 8 10 11 12 14 13 11 10 8 6 6 5 9 16 10 7 13 11 4 2 2 2 1 1 1 1 2 2 2 4 4 2 0 1 1 0 1 3 3 4 4 4 5 5 4 5 4 5 6 5 6 8 10 11 10 10 11 10 9 8 8 8 7
13 6 7 16 18 20 25 18 7 6 7 8 9 6 5 5 2 2 1 5 8 7 9 11 11 9 10 12 12 12 12 11 12 9 6 7 5 5 12 12 8 10 10 5 2 3 2 1 2 2 1 2 3 3 4 5 5 4 4 5 4 2 0 1 3 3 2 4 6 5 4 3 3 5 8 8 5 6 11 11 9 9 10 9 9 9 8 7
4 4 8 17 21 25 23 10 6 7 6 8 7 4 6 6 5 5 2 3 2 1 2 8 11 10 9 11 12 11 9 9 10 9 5 8 8 4 8 11 10 10 9 5 4 4 2 1 3 4 3 4 2 0 1 0 2 4 5 7 7 6 4 3 4 2 1 3 4 3 4 2 2 1 4 3 1 2 5 9 9 9 10 10 10 10 9 8
2 5 10 20 28 27 16 6 6 7 6 7 4 4 6 6 6 8 3 0 1 2 1 4 7 8 9 9 10 11 9 7 9 9 6 9 11 6 5 7 11 12 9 7 5 2 1 2 4 4 3 2 1 2 1 0 0 2 3 4 5 6 6 6 5 3 3 2 1 2 4 2 2 2 1 2 3 4 2 3 8 10 10 10 10 9 9 8
2 5 10 23 31 22 10 6 7 6 5 4 4 5 5 5 7 8 6 5 3 2 2 3 4 6 6 7 9 11 11 8 9 12 9 8 8 2 2 6 11 13 9 7 6 1 1 3 4 3 2 1 1 2 2 1 1 3 4 4 5 5 5 4 2 1 3 4 2 3 5 4 1 2 2 1 2 2 1 1 6 9 9 10 11 10 9 8
3 4 6 15 26 18 7 7 9 9 7 7 7 5 3 3 6 9 10 8 4 5 6 5 4 4 3 5 7 11 13 8 8 11 8 6 5 2 3 9 12 10 7 6 7 6 3 4 4 4 3 3 3 3 2 2 3 5 5 5 6 4 2 2 0 2 3 6 7 6 7 5 1 2 2 2 2 3 3 3 5 7 9 10 10 9 8 9
4 3 4 5 14 11 5 3 6 9 10 10 10 9 6 3 2 4 8 7 2 4 7 4 4 5 6 6 5 8 12 7 5 9 6 3 4 2 2 8 11 9 4 3 7 7 5 5 6 6 6 5 5 6 6 5 4 4 3 4 8 8 6 5 3 4 5 6 8 7 8 6 1 2 3 4 4 5 6 6 6 6 9 10 9 8 8 8
2 3 2 3 4 6 5 3 3 6 11 12 9 10 11 8 2 0 3 5 1 1 4 4 5 7 8 10 8 8 12 7 1 5 8 5 3 2 2 3 6 5 2 3 8 7 2 2 7 10 10 9 9 9 7 7 6 8 10 10 12 14 13 8 3 5 8 6 6 8 10 9 4 4 6 5 6 7 7 8 7 6 8 10 9 9 8 8
1 2 3 4 3 5 6 6 6 6 10 13 9 9 14 12 8 4 2 2 4 4 3 3 6 9 11 13 11 9 13 9 2 4 9 6 3 4 3 2 2 2 4 2 7 7 3 4 8 12 13 13 13 9 8 10 9 13 16 16 15 15 13 10 7 11 11 7 7 10 13 14 11 8 8 7 8 7 7 9 9 9 10 9 9 9 9 8
1 1 0 1 1 6 8 10 12 10 13 15 8 10 16 14 12 10 4 1 5 7 3 3 7 12 14 15 11 8 12 9 5 6 6 5 5 5 4 2 1 2 3 1 3 4 5 8 9 10 11 11 8 4 7 11 10 11 11 12 13 13 13 13 13 15 12 8 10 14 15 15 14 11 10 9 9 8 8 8 8 8 9 9 9 10 10 10
1 2 1 4 2 2 4 8 11 12 15 15 9 10 17 17 15 12 6 5 6 7 6 7 11 13 14 15 10 9 11 9 8 8 5 5 4 5 4 2 2 2 1 2 1 1 3 7 8 8 9 11 6 4 6 9 9 10 10 10 11 12 14 14 13 15 16 14 15 18 17 14 11 10 11 8 6 5 3 4 7 9 9 9 9 10 10 10
1 1 0 1 2 1 2 8 11 10 12 13 10 9 14 17 17 11 7 7 10 10 8 9 13 14 14 15 12 10 12 13 10 9 9 7 4 4 5 4 4 4 1 2 2 2 2 6 9 6 5 10 6 3 4 6 7 10 10 9 10 12 14 15 14 15 16 16 18 18 16 12 8 8 8 2 4 6 5 5 8 9 9 9 10 10 11 12
1 1 1 1 1 1 2 9 10 9 10 12 10 9 12 18 17 11 6 3 5 9 10 10 13 11 7 11 14 11 11 10 6 8 14 11 7 8 6 4 7 8 4 5 4 2 2 2 5 6 5 8 6 4 5 2 1 5 6 7 11 12 12 14 14 15 14 14 17 15 12 12 9 7 6 4 5 6 7 8 8 8 9 11 11 12 13 13
1 1 1 1 2 1 1 6 9 9 8 10 11 10 11 15 15 12 8 1 2 4 8 10 12 9 4 9 12 7 5 6 5 4 7 5 3 5 4 4 9 10 8 8 5 4 6 4 4 7 8 8 6 4 4 4 1 5 6 10 13 13 13 13 13 14 15 14 13 11 12 12 7 6 8 5 6 7 7 8 8 9 11 12 13 13 13 12
Wind_Direction
190 192 192 192 191 192 196 195 193 192 190 191 191 193 193 194 195 195 195 196 197 199 201 202 205 206 203 201 197 198 207 228 257 278 253 243 241 245 252 253 276 277 248 235 225 224 213 204 185 166 172 164 194 156 152 219 235 219 206 211 219 204 182 168 171 137 89 131 138 158 178 191 162 163 169 156 213 201 158 181 149 135 114 95 104 111 126 139
190 191 191 192 191 190 193 194 192 190 189 189 188 190 190 191 193 193 194 195 196 198 198 197 200 203 201 201 198 199 208 226 261 271 241 236 240 247 249 249 261 263 230 219 222 217 208 198 175 171 180 169 173 153 165 187 213 217 195 210 222 172 93 59 95 71 33 123 143 160 184 201 166 158 169 196 189 183 198 184 180 183 150 123 121 136 142 151
191 191 191 191 191 190 192 192 190 188 187 187 188 188 188 189 190 192 192 192 195 196 196 197 198 202 204 201 201 205 200 168 312 259 231 226 240 242 239 248 252 245 226 220 227 224 217 202 179 180 185 183 178 179 193 182 205 227 206 214 202 100 89 61 62 74 36 51 149 159 173 189 155 146 170 209 186 185 212 188 182 198 180 156 140 149 155 162
191 191 191 192 192 191 192 192 189 187 187 186 187 188 188 188 188 190 191 191 192 192 193 195 194 195 194 190 193 191 161 108 261 237 222 217 232 239 235 245 246 238 229 226 234 239 231 205 189 192 193 188 177 193 195 172 205 188 204 228 102 103 118 85 62 71 42 354 156 146 160 181 152 154 182 209 198 195 215 202 190 198 192 171 149 155 165 169
190 191 192 193 193 191 192 191 189 188 186 185 186 187 187 187 188 188 188 189 188 188 189 190 187 181 174 169 170 157 132 142 239 226 224 217 221 236 243 242 242 235 226 225 233 245 235 206 194 198 207 188 168 192 185 166 208 182 172 32 63 98 107 89 70 63 46 326 173 148 165 165 139 175 198 215 222 183 159 147 131 112 170 162 152 155 165 173
188 190 192 193 192 190 189 190 190 188 185 184 184 186 186 186 187 186 185 184 184 186 187 186 179 170 167 163 157 150 151 205 215 212 221 218 217 230 239 233 235 230 220 223 230 234 225 203 194 195 210 197 179 187 167 158 213 209 171 83 62 44 64 82 81 63 6 243 181 156 144 140 160 189 192 227 240 64 64 57 58 47 47 137 149 155 166 177
187 189 191 191 191 189 187 189 189 187 185 183 183 184 185 186 186 186 183 181 182 182 182 179 168 166 167 153 146 162 216 241 190 192 200 206 216 225 225 222 225 219 209 214 215 217 214 198 197 195 201 201 189 186 159 158 215 234 174 135 96 57 74 75 81 96 274 244 152 115 129 167 194 190 136 234 240 113 90 69 62 73 92 140 152 162 173 181
187 189 189 189 190 188 186 187 187 187 185 182 183 184 184 185 184 184 182 181 181 177 175 169 163 168 166 150 143 177 229 235 202 178 184 196 215 218 211 210 212 204 202 210 205 206 209 200 199 197 203 203 188 180 159 161 204 228 171 134 126 89 94 88 97 127 165 252 20 152 183 173 191 55 158 235 231 140 119 106 94 103 126 165 173 174 178 185
187 188 188 188 189 186 185 187 187 187 185 182 183 183 184 183 182 183 182 180 178 172 165 162 164 168 163 157 166 193 215 222 209 137 172 195 207 205 196 197 200 194 201 210 205 206 207 207 204 205 229 216 185 173 173 180 197 203 152 127 134 117 107 112 120 127 153 179 175 196 182 123 70 345 254 231 187 114 125 154 164 156 166 182 186 185 185 189
187 187 187 187 188 186 184 185 186 185 184 183 182 182 182 182 182 181 179 176 175 171 164 164 165 165 164 169 190 205 207 210 215 231 235 189 193 190 185 194 195 190 202 207 204 205 203 216 209 216 304 254 197 178 182 192 166 137 127 116 122 117 115 133 127 126 148 142 193 220 170 127 116 245 245 195 120 116 158 186 183 196 209 198 192 193 193 195
186 186 186 186 187 184 182 182 185 184 182 182 180 179 179 180 182 180 178 176 173 169 165 165 165 166 172 188 199 207 166 185 204 217 216 179 184 184 184 195 192 191 203 199 200 206 205 224 198 199 312 212 189 180 183 188 131 131 128 111 112 119 124 144 141 140 170 142 200 262 181 152 136 224 236 128 111 144 178 196 190 207 219 206 197 193 195 200
184 183 183 185 185 183 180 180 183 183 179 179 178 175 176 179 180 178 177 175 173 169 165 166 167 167 178 209 214 205 143 169 187 194 189 173 183 187 188 194 189 195 210 199 199 206 203 195 173 211 270 200 169 161 175 180 152 146 149 138 132 152 158 162 145 148 212 155 168 276 247 216 198 220 213 133 138 139 159 194 189 207 213 206 198 190 196 198
181 181 182 183 183 180 177 176 179 180 177 176 175 172 175 178 179 177 175 174 172 167 165 167 166 168 193 216 209 192 159 168 174 178 178 173 182 189 191 196 191 198 212 201 191 197 201 193 202 215 304 287 180 134 133 144 157 156 173 184 152 186 191 167 146 154 197 135 151 239 259 242 209 206 171 123 158 158 181 205 189 200 200 199 198 194 202 196
179 180 179 179 180 175 171 171 172 173 172 171 170 169 173 176 177 176 172 171 169 166 166 166 166 173 227 209 158 199 186 165 171 175 175 173 173 176 186 195 196 202 204 194 167 188 201 190 201 202 22 313 187 136 143 133 169 160 166 205 183 210 184 151 149 166 182 144 167 215 256 267 194 160 130 122 182 186 207 218 201 197 191 197 197 199 206 198
178 177 176 176 175 170 166 167 167 166 164 164 165 166 170 173 174 172 169 167 164 164 161 164 171 181 242 213 152 190 185 164 172 179 179 172 163 164 173 180 187 201 201 198 190 174 179 170 191 195 125 75 150 166 160 144 189 170 165 199 202 215 159 138 157 174 186 157 180 206 243 258 180 128 120 141 188 202 216 220 208 201 196 200 198 203 211 205
176 175 173 172 169 165 163 163 163 162 159 160 161 160 163 166 166 165 162 159 158 160 154 162 184 204 243 203 141 172 180 175 178 188 184 173 171 163 151 155 161 172 175 172 169 148 157 171 202 208 136 163 180 172 155 154 188 185 198 200 189 205 179 147 162 181 190 149 187 217 251 259 162 123 138 161 180 195 213 223 217 215 208 205 205 208 211 208
173 172 170 169 166 162 161 160 159 159 158 156 155 153 156 157 157 153 150 153 153 156 152 163 190 212 271 155 145 187 177 171 176 182 185 177 175 160 146 148 146 136 128 127 147 152 166 177 177 196 175 187 194 180 170 181 186 182 211 213 184 201 202 179 155 168 184 180 204 214 237 258 240 135 148 167 177 183 204 223 222 222 219 214 213 212 215 216
170 170 168 167 164 160 160 159 158 159 157 153 152 150 149 147 145 140 141 144 134 145 165 222 183 197 245 169 162 172 150 154 166 170 183 179 165 161 156 154 144 139 133 125 155 173 178 181 182 198 195 200 201 193 193 195 186 175 186 203 181 197 212 205 152 151 180 200 219 212 225 248 251 217 174 170 177 191 206 215 225 226 223 222 221 225 226 222
168 167 167 165 163 160 159 159 158 157 154 151 148 143 137 133 134 137 147 153 144 150 190 198 179 198 206 166 132 104 132 152 158 160 176 171 161 165 162 155 151 151 149 146 177 184 180 181 198 209 200 198 201 202 206 197 188 184 185 198 185 187 209 188 100 114 186 201 216 223 233 245 249 246 233 195 178 198 222 223 232 232 231 232 230 234 231 229
167 165 165 163 161 159 158 160 159 158 155 152 149 144 138 138 141 153 167 179 175 169 229 176 184 239 66 144 128 117 128 145 150 154 169 167 160 156 148 155 162 166 170 166 167 171 187 194 200 211 204 199 202 204 201 103 174 186 184 201 194 188 197 137 95 94 190 219 219 226 240 251 255 254 253 234 198 211 232 233 236 233 231 233 231 235 234 237
166 164 164 163 161 159 159 160 160 161 159 156 157 154 157 164 164 163 167 176 162 33 295 165 167 162 51 122 133 133 131 136 148 159 169 173 168 159 155 166 169 177 185 172 155 141 191 210 208 211 210 196 194 191 152 101 144 170 180 193 199 199 182 94 92 108 117 238 229 222 245 255 257 258 258 250 234 230 233 235 237 233 233 232 227 231 233 233
166 164 164 162 161 159 160 162 162 163 161 163 170 177 180 171 123 139 152 142 109 59 119 144 131 68 72 117 146 148 144 139 147 161 170 180 188 182 169 179 181 169 162 163 153 152 196 221 210 194 171 148 150 145 163 170 155 171 187 195 204 185 132 96 98 116 131 232 232 207 259 262 260 260 257 251 245 239 236 237 238 234 234 230 223 223 222 218
165 164 163 162 161 161 162 163 163 164 167 173 185 206 202 133 122 135 142 115 112 86 126 148 147 113 109 138 221 231 161 147 158 168 176 185 194 189 166 182 185 156 155 175 175 181 195 219 205 151 124 135 132 152 187 193 191 197 191 196 198 157 157 193 152 134 145 235 304 328 287 272 264 259 252 245 241 238 232 235 240 240 236 232 233 239 226 218
164 163 162 161 161 162 162 161 162 168 178 186 196 216 174 137 141 149 144 109 125 94 110 148 137 140 145 152 201 223 168 134 151 162 177 189 175 158 168 181 180 157 174 191 193 197 182 81 322 145 160 181 168 171 193 202 206 210 214 214 190 161 165 54 122 137 144 205 269 301 282 271 250 243 243 230 220 233 220 219 235 238 232 233 250 266 245 235
162 162 161 161 161 162 161 159 164 174 181 192 206 221 187 152 156 167 150 119 136 97 110 186 79 159 164 156 196 203 138 102 75 131 169 197 168 151 166 172 184 180 184 190 199 209 175 43 307 167 170 190 182 182 198 205 208 206 218 228 166 165 150 97 126 146 188 211 194 227 259 270 225 224 231 194 164 226 211 212 229 225 211 208 226 239 230 228
161 161 160 160 159 158 159 162 171 174 177 201 213 213 194 170 166 178 157 135 159 137 151 172 170 166 160 160 184 162 151 145 24 86 142 197 247 152 160 133 16 193 179 178 202 227 126 76 269 162 160 176 188 203 197 200 220 211 202 175 110 145 141 133 157 175 230 224 134 188 246 261 204 208 208 173 194 221 199 208 222 211 197 196 210 220 211 214
161 160 159 160 159 159 159 158 165 168 174 209 208 198 192 182 172 191 163 158 180 157 151 162 203 172 158 153 184 173 165 143 115 124 140 170 213 2 176 168 153 170 153 149 189 209 117 139 170 162 165 170 191 212 184 192 225 220 84 152 146 156 161 158 175 204 242 58 114 205 244 266 262 222 155 153 218 235 218 212 206 194 194 195 201 207 205 228
161 160 160 160 161 162 162 152 159 170 182 194 192 189 186 178 169 209 179 175 171 143 150 150 140 162 145 99 195 211 135 134 141 154 110 75 167 295 203 184 168 138 87 160 192 177 97 155 165 161 176 186 196 230 165 190 216 200 24 149 137 147 168 169 189 210 225 320 215 198 187 251 260 217 140 168 234 246 231 204 188 184 180 181 200 208 215 238
161 161 160 160 161 164 166 160 164 178 188 180 179 178 172 164 160 195 204 191 150 129 150 145 144 156 148 148 175 183 133 136 139 138 132 115 100 348 213 181 150 124 77 33 142 36 26 171 180 164 186 185 117 28 27 200 196 145 148 107 95 107 125 156 203 196 179 243 235 180 179 244 266 224 184 186 226 242 229 188 172 171 159 162 198 207 233 214
160 161 160 159 162 165 160 162 173 181 179 175 171 165 158 153 172 183 204 195 146 139 140 146 165 163 160 163 174 183 159 126 106 128 139 142 109 55 347 138 129 122 90 51 74 52 35 31 312 8 186 150 96 58 19 20 114 141 152 118 104 118 117 137 204 197 217 236 228 136 184 259 274 242 200 188 239 252 219 171 157 155 150 154 151 145 212 185
160 161 161 161 162 161 153 162 182 183 175 166 160 158 157 161 188 188 188 157 132 139 151 156 162 162 171 174 167 178 161 119 141 145 143 149 123 125 149 152 131 121 134 125 94 82 94 123 181 61 45 183 121 87 41 43 135 151 156 140 129 127 143 180 181 201 234 234 164 73 316 250 242 238 174 112 18 344 269 186 168 164 152 141 127 123 126 96
161 160 162 163 161 161 162 172 179 177 166 157 154 159 167 160 193 204 165 147 153 172 177 168 164 167 181 178 157 160 151 124 161 162 156 164 161 164 175 180 166 153 184 184 154 118 113 112 108 62 314 231 164 115 79 75 181 203 172 162 171 166 174 206 195 201 229 226 104 101 268 242 244 248 247 256 235 193 220 146 145 149 138 124 118 104 97 101
160 160 163 166 165 171 193 180 174 168 154 155 157 177 177 167 197 198 168 163 163 161 166 166 165 169 178 175 153 151 142 128 171 170 160 166 170 177 190 195 185 191 198 171 150 141 147 117 148 151 188 232 209 161 141 169 191 198 185 181 196 183 180 206 199 205 225 195 88 207 238 250 260 258 253 260 243 175 144 98 90 108 114 108 108 96 91 107
159 160 164 169 173 185 199 174 171 161 150 158 168 175 182 190 197 186 173 171 142 145 156 157 158 166 178 179 159 153 135 108 167 161 156 165 174 181 189 202 201 212 155 155 157 173 180 186 181 171 154 194 209 205 143 171 181 194 198 202 211 204 204 209 202 206 196 113 111 199 221 232 240 123 159 280 20 113 118 98 86 107 117 106 111 121 122 120
158 160 163 168 178 190 179 169 167 158 154 164 169 172 193 198 188 186 176 154 143 149 148 150 154 163 177 174 158 165 153 81 175 164 158 171 184 184 185 193 198 196 162 159 161 181 193 213 121 138 267 194 195 306 342 169 175 185 352 236 227 236 211 174 192 156 132 84 169 187 239 251 261 281 172 150 103 124 129 121 153 167 144 142 150 147 139 129
156 159 163 167 178 185 169 166 165 162 165 170 167 186 206 192 181 188 165 137 152 151 139 148 160 166 172 161 164 184 208 118 172 171 168 186 195 188 187 185 184 192 189 172 150 175 189 192 44 87 153 58 20 335 333 294 177 166 174 194 208 2 68 122 145 91 92 266 203 169 235 257 266 267 208 166 175 187 168 165 179 173 153 154 158 151 142 132
155 157 161 168 175 175 168 167 166 170 187 182 181 196 199 183 213 179 148 129 144 147 142 155 173 177 175 164 178 186 161 134 173 183 174 184 198 194 193 186 175 189 204 193 162 207 181 135 39 6 125 84 9 327 8 353 11 139 177 175 143 50 24 176 223 157 194 246 219 169 222 234 229 243 155 153 191 195 183 184 179 168 164 163 156 149 144 132
151 149 150 166 170 166 165 165 164 173 193 188 198 204 185 136 121 142 136 133 143 154 160 165 174 186 183 172 177 178 164 158 181 191 172 174 201 191 187 186 176 187 200 185 127 212 175 141 57 5 79 103 123 215 166 164 334 356 246 201 140 207 211 193 214 218 209 232 243 202 214 231 227 217 154 167 191 194 187 181 175 172 170 166 156 149 143 133
143 141 141 164 166 159 159 159 158 171 181 191 204 207 170 112 123 148 139 143 151 163 175 172 168 189 194 181 170 168 174 176 170 178 182 182 195 184 184 182 169 185 188 160 174 169 142 209 170 65 1 120 142 217 196 177 163 8 291 229 313 259 227 199 206 230 229 232 246 218 200 223 222 213 219 211 201 196 185 175 178 178 173 167 156 150 148 146
143 136 137 160 163 154 152 152 155 176 189 203 202 189 149 127 133 263 228 143 152 167 187 180 171 180 189 183 169 163 180 182 168 182 199 179 174 188 193 185 159 173 170 138 168 162 117 263 175 114 340 182 179 211 207 185 171 180 187 179 186 197 234 259 229 228 239 233 239 238 231 232 184 193 220 227 231 204 179 170 175 175 168 162 152 153 158 156
153 125 139 161 161 152 150 151 172 181 198 210 201 165 147 135 138 180 291 352 103 61 226 185 174 176 177 178 171 161 172 179 174 187 192 179 190 210 202 189 161 152 149 140 175 171 151 193 153 143 179 193 188 22 334 235 165 191 197 188 195 186 159 208 217 187 202 244 248 258 261 257 110 134 224 201 66 48 158 164 166 166 165 159 153 159 162 157
140 123 145 162 161 156 157 164 179 190 209 202 180 113 133 136 143 163 176 327 102 48 326 177 165 170 172 178 174 159 162 175 179 190 199 199 205 203 192 185 158 148 152 166 176 155 73 113 120 135 168 187 135 66 50 284 238 261 245 213 207 196 191 214 216 181 177 204 8 328 277 272 114 84 11 107 87 46 48 151 160 162 164 158 155 158 155 153
92 106 133 159 166 168 172 168 176 205 215 169 109 88 122 142 144 154 165 176 162 126 160 152 146 166 171 173 171 163 165 174 184 194 205 202 202 197 138 156 150 153 162 164 162 154 45 118 125 125 109 79 132 124 120 140 236 250 241 222 215 207 201 214 237 194 175 173 171 229 250 256 167 112 81 65 79 72 359 228 174 165 164 161 159 157 153 149
99 96 101 159 175 187 199 176 184 199 187 156 134 121 114 126 143 159 174 180 175 165 166 152 152 168 152 157 172 173 174 181 196 202 209 191 183 26 98 150 151 160 175 173 169 177 179 162 148 138 143 170 187 189 194 194 209 225 223 207 209 209 115 89 318 269 216 189 192 218 249 249 169 110 148 148 152 187 203 220 201 177 166 163 160 157 154 148
110 103 44 143 179 202 230 200 196 191 171 160 156 153 146 121 126 174 173 163 147 166 161 142 146 144 128 145 163 176 184 192 199 201 212 189 170 34 77 161 167 175 185 153 154 162 179 181 162 164 179 184 189 205 204 186 182 209 219 192 197 202 186 175 213 235 223 198 189 212 249 248 139 124 183 165 163 197 195 191 207 197 172 162 159 160 158 153
114 121 105 118 168 222 250 288 250 197 172 165 162 166 165 154 133 276 163 152 141 154 131 114 144 139 137 160 165 175 192 197 108 183 198 185 144 66 36 162 170 169 69 101 142 140 144 231 192 192 200 201 211 221 197 157 153 189 203 201 200 202 201 198 208 217 219 216 203 216 236 246 235 183 194 193 186 201 197 181 191 195 174 163 161 161 158 156
85 124 158 142 150 202 223 237 231 208 180 173 169 174 173 160 146 160 208 194 190 176 110 98 162 163 159 171 174 182 193 190 114 173 191 177 109 73 59 64 112 74 36 136 156 130 132 232 217 209 215 216 219 221 183 164 178 197 203 205 204 200 196 196 213 222 221 222 230 226 225 239 244 210 194 202 196 202 204 188 189 190 177 165 159 155 156 158
47 69 62 352 149 189 203 208 206 199 183 179 173 170 173 163 155 168 186 161 178 188 169 143 186 185 174 171 172 177 186 188 187 188 177 153 133 117 97 77 97 61 37 155 165 133 166 203 212 216 232 231 214 170 167 182 197 207 209 205 198 191 188 195 215 227 223 219 235 235 224 229 239 229 214 207 193 200 207 189 179 179 171 161 157 157 163 166
43 69 345 335 345 182 180 181 192 197 187 182 179 177 179 174 168 167 151 133 171 201 206 188 188 189 180 175 173 171 175 183 194 192 162 130 144 139 127 149 158 110 86 145 183 260 187 190 197 206 238 242 214 136 175 198 202 209 215 204 187 182 188 198 215 227 225 225 235 242 240 237 239 234 229 217 176 168 162 135 152 171 171 163 162 167 173 174
59 83 55 9 29 38 136 164 182 197 192 189 189 185 187 185 176 160 140 155 174 188 207 201 183 180 178 179 185 189 188 191 194 181 152 133 151 177 170 171 147 122 131 159 160 294 236 190 187 182 245 250 225 153 196 212 212 215 211 192 176 179 195 207 219 226 227 231 239 247 255 258 250 226 219 190 104 114 122 146 176 183 175 167 171 179 180 180
48 338 23 119 98 29 169 173 181 192 192 196 195 183 189 193 181 153 133 168 176 174 192 190 168 159 161 182 197 204 190 183 178 165 160 156 172 188 182 165 148 142 162 178 165 190 199 188 181 177 225 247 229 201 199 175 285 252 217 178 175 181 194 205 215 221 218 224 239 248 252 254 247 214 191 136 119 149 165 179 192 191 182 181 186 190 187 184
85 321 328 107 109 79 182 169 179 193 196 199 198 185 185 192 180 154 143 156 32 145 182 175 149 134 144 193 204 200 136 110 73 119 156 141 138 160 143 144 158 154 163 174 170 177 179 176 171 176 205 228 220 206 177 143 219 252 217 193 190 193 203 208 216 222 216 216 229 234 237 245 236 186 187 175 156 173 185 188 194 194 191 192 194 193 190 185